GEFSNGP_con_prob3kmehi_216.txt.gz
EHI
0 0 0 1 1 0 0 0 0 0 0 0 1 4 9 13 16 22 25 26 28 27 23 17 16 19 24 25 25 26 27 24 23 24 23 21 17 11 6 5 5 6 6 5
0 0 0 1 2 1 0 0 0 0 0 0 2 6 12 15 18 22 26 27 29 28 23 17 15 17 22 26 25 23 24 23 22 23 23 20 16 11 8 6 5 6 6 5
0 0 0 1 1 1 0 0 0 0 1 1 3 9 15 17 18 21 23 25 27 26 21 15 12 13 19 24 23 21 21 21 21 22 22 20 17 13 11 8 7 7 6 5
0 0 0 0 0 0 0 0 0 0 1 2 4 10 14 15 17 19 20 20 20 19 15 11 9 10 15 19 20 20 20 20 20 20 19 18 17 15 14 12 10 9 7 6
0 0 0 0 0 0 0 0 0 0 1 2 6 10 11 12 14 18 19 18 15 12 10 8 8 10 13 17 19 19 20 20 19 17 14 13 13 14 14 13 12 11 10 9
0 0 0 0 0 0 0 0 0 0 1 4 7 9 9 10 14 17 19 17 12 9 7 7 8 9 12 16 19 19 19 18 15 12 10 9 10 12 12 12 12 13 12 12
0 0 0 0 0 0 0 0 0 1 3 6 7 7 8 12 16 18 18 15 11 8 6 5 6 8 10 14 16 15 14 13 10 8 7 7 8 11 12 12 11 11 11 10
0 0 0 0 0 0 0 0 0 1 3 7 8 7 9 13 17 19 19 15 10 7 5 5 5 7 9 11 11 9 7 6 6 5 5 6 9 11 13 13 11 9 9 8
0 0 0 0 0 0 0 0 0 0 3 6 8 8 10 12 14 17 18 15 10 7 6 6 6 8 9 9 8 6 4 2 4 5 7 8 9 11 13 12 10 8 7 8
0 0 0 0 0 0 0 0 0 1 3 5 6 7 8 10 12 14 15 14 9 7 6 6 7 7 7 7 7 6 4 3 4 7 9 9 9 10 11 11 9 8 7 8
1 0 1 1 0 0 0 0 1 2 4 5 4 4 6 8 10 12 13 12 9 7 6 6 6 5 5 6 7 5 4 4 5 7 9 10 9 8 8 7 6 6 6 7
1 1 2 2 1 0 0 0 1 2 3 3 2 2 4 7 8 9 10 9 7 6 6 5 4 4 5 6 6 5 4 4 5 6 7 9 8 6 3 2 2 2 3 4
1 1 2 3 2 1 0 0 1 1 2 2 3 4 5 6 7 7 7 7 7 6 5 4 4 4 5 5 5 3 3 3 3 4 5 6 6 4 2 1 1 0 0 1
0 1 2 2 2 1 0 0 0 0 0 1 2 4 6 6 6 6 6 6 6 6 5 4 5 4 4 3 2 1 1 1 1 1 2 2 2 2 2 2 2 1 0 0
0 0 1 1 1 0 0 0 0 0 0 0 1 3 5 6 6 5 5 5 5 6 5 4 4 4 3 2 1 0 0 0 0 0 0 0 0 1 1 2 2 1 0 0
0 0 0 0 0 0 0 0 0 0 0 0 1 2 4 5 5 4 3 3 3 3 3 2 1 1 1 1 0 0 0 0 0 0 0 0 0 0 0 1 1 1 0 0
0 0 0 0 0 0 0 0 0 0 0 0 1 3 3 4 3 3 2 1 1 1 1 1 0 0 0 0 0 0 0 0 0 0 0 0 0 0 0 0 0 0 0 0
0 0 0 1 0 0 0 0 0 0 1 1 2 3 3 2 1 1 1 0 0 0 0 0 1 1 1 0 0 0 0 0 0 0 0 0 0 0 0 0 0 0 0 0
0 0 0 0 0 0 0 0 1 1 2 3 3 3 2 1 0 0 0 0 0 0 0 0 1 2 1 0 0 0 0 0 0 0 0 0 0 0 0 0 0 0 0 0
0 0 0 0 0 0 0 1 2 2 2 2 2 2 1 0 0 0 0 0 0 0 0 0 2 3 2 0 0 0 0 0 0 0 0 0 0 0 0 0 0 0 0 0
0 0 0 0 0 0 0 1 2 1 1 1 1 1 0 0 0 0 0 0 0 0 0 0 1 1 1 0 0 0 0 0 0 0 0 0 0 0 0 0 0 0 0 0
0 0 0 0 0 0 1 1 1 0 0 0 0 0 0 0 0 0 0 0 0 0 0 0 0 0 0 0 0 0 0 0 0 0 0 0 0 0 0 0 0 0 0 0
0 0 0 0 0 1 1 1 0 0 0 0 0 0 0 0 0 0 0 0 0 0 0 0 0 0 0 0 0 0 0 0 0 0 0 0 0 0 0 0 0 0 0 0
0 0 0 0 0 1 1 1 0 0 0 0 0 0 0 0 0 0 0 0 0 0 0 0 0 0 0 0 0 0 0 0 0 0 0 0 0 0 0 0 0 0 0 0
0 0 0 0 0 0 0 0 0 0 0 0 0 0 0 0 0 0 0 0 0 0 0 0 0 0 0 0 0 0 0 0 0 0 0 0 0 0 0 0 0 0 0 0
0 0 0 0 0 0 0 0 0 0 0 0 0 0 0 0 0 0 0 0 0 0 0 0 0 0 0 0 0 0 0 0 0 0 0 0 0 0 0 0 0 0 0 0
0 0 0 0 0 0 0 0 0 0 0 0 0 0 0 0 0 0 0 0 0 0 0 0 0 0 0 0 0 0 0 0 0 0 0 0 0 0 0 0 0 0 0 0

GEFSNGP_con_prob3kmehi_222.txt.gz
EHI
0 0 0 0 0 0 1 1 2 3 5 9 12 15 19 27 33 36 39 42 42 41 39 39 37 34 34 34 32 33 33 30 25 23 23 25 25 25 24 23 20 19 19 19
0 0 0 0 0 0 0 1 2 3 5 8 10 13 19 25 30 35 39 40 41 41 38 34 33 32 32 32 31 31 31 28 25 23 23 24 25 23 21 19 18 19 20 20
0 0 0 0 0 0 0 0 1 3 5 7 9 13 18 23 29 36 40 40 40 41 38 33 30 30 30 30 29 28 27 27 26 24 23 22 20 17 16 16 17 18 19 19
0 0 0 0 0 0 0 0 1 3 7 9 11 13 17 21 30 39 44 45 43 41 39 36 33 30 29 29 28 27 26 25 24 23 23 21 16 13 15 17 18 19 20 20
0 0 0 0 0 0 0 0 1 4 8 11 12 11 13 19 29 39 46 49 47 42 38 37 33 29 28 27 26 25 24 22 22 22 22 19 15 14 17 20 20 20 22 22
0 0 0 0 0 0 0 0 1 3 8 11 11 10 12 20 28 38 43 44 42 38 34 31 27 24 23 22 22 22 20 19 19 19 18 16 15 16 18 20 20 21 22 22
0 0 0 0 0 0 1 1 1 3 7 11 12 13 17 24 31 37 38 35 34 34 31 25 20 18 18 17 18 18 18 18 17 16 14 13 14 16 18 20 22 23 23 23
0 0 0 0 1 3 5 5 5 6 10 14 15 15 19 26 32 35 33 30 30 32 29 22 17 15 16 17 17 18 19 18 16 15 13 13 14 15 17 19 21 22 22 21
0 0 0 1 3 6 9 10 10 11 13 13 12 13 18 26 30 30 28 27 29 30 25 19 16 15 17 19 20 20 21 20 17 15 13 13 14 15 15 17 18 19 18 17
0 1 1 2 4 8 11 12 11 10 10 8 7 12 18 23 25 24 22 23 25 25 22 19 18 17 19 21 21 20 20 19 17 14 14 15 15 15 15 15 16 16 15 14
2 3 4 5 7 9 10 10 8 6 5 4 7 13 17 18 20 18 17 17 20 22 20 20 21 21 20 19 18 17 17 16 14 14 16 17 17 14 12 11 11 10 11 11
6 7 8 10 10 9 8 7 6 5 4 4 8 13 15 15 15 13 13 14 16 17 18 19 20 19 17 16 15 15 14 13 12 14 17 18 16 12 8 6 4 3 4 5
8 10 11 11 9 7 6 5 6 7 7 7 8 11 13 14 13 11 11 12 13 14 14 15 14 13 12 14 15 14 13 11 10 12 14 15 14 10 6 3 1 0 0 1
6 8 11 10 7 5 5 6 8 9 9 8 8 8 10 10 10 9 9 10 10 10 10 11 10 9 9 11 13 13 11 9 8 9 10 10 10 7 5 2 1 0 0 0
5 7 8 7 5 4 5 7 9 9 8 7 6 6 8 8 6 6 7 7 7 7 7 8 8 8 8 9 10 10 8 6 5 5 6 5 4 3 3 2 1 1 1 0
5 5 5 5 4 4 6 7 8 8 7 5 4 4 6 6 5 4 5 6 6 5 5 5 6 6 7 8 9 9 6 3 2 2 2 2 1 1 1 2 2 2 2 1
3 2 3 3 3 4 6 6 6 6 5 3 1 1 3 4 4 3 4 6 6 5 5 5 5 5 6 8 9 7 4 2 1 1 1 2 1 0 0 1 2 3 2 1
1 0 1 1 1 3 4 4 3 3 3 1 0 0 1 2 2 2 3 5 5 6 6 6 6 5 6 7 6 5 3 1 1 1 2 2 2 1 1 1 1 1 1 1
0 0 0 0 0 1 2 2 2 2 1 0 0 0 0 0 1 1 2 3 4 5 5 4 3 4 5 5 4 3 2 2 1 1 1 1 1 1 1 0 0 0 0 0
0 0 0 0 0 0 1 1 1 1 0 0 0 0 0 0 0 1 2 3 3 3 3 2 1 2 5 4 3 2 2 1 1 0 0 0 0 1 1 0 0 0 0 0
0 0 0 0 0 0 0 0 0 0 0 0 0 0 0 0 1 2 2 2 1 1 1 0 0 2 3 2 2 2 1 0 0 0 0 0 0 0 0 1 1 1 0 0
0 0 0 0 0 0 0 0 0 0 0 0 0 0 0 1 2 2 1 0 0 0 0 0 0 1 1 1 1 1 1 0 0 0 0 0 0 0 1 2 2 1 0 0
1 1 1 1 1 0 0 0 0 0 0 0 0 0 1 2 3 2 1 0 0 0 0 0 0 0 0 0 0 0 0 0 0 0 0 0 0 1 2 3 3 1 0 0
2 2 2 2 2 1 0 0 0 0 0 0 0 1 2 2 2 1 0 0 0 0 0 0 0 0 0 0 0 0 0 0 0 0 0 0 1 2 3 3 2 1 1 0
3 3 3 3 3 2 0 0 0 0 0 0 0 1 2 1 1 0 0 0 0 0 0 0 0 0 0 0 0 0 0 0 0 0 1 1 1 2 2 1 1 2 2 1
3 2 2 3 2 1 0 0 0 0 0 0 0 1 1 0 0 0 0 0 0 0 0 0 0 0 0 0 0 0 0 0 0 0 0 1 1 2 1 0 0 1 1 1
3 2 2 2 1 0 0 0 0 0 0 0 0 0 0 0 0 0 0 0 0 0 0 0 0 0 0 0 0 0 0 0 0 0 0 0 1 1 0 0 0 0 1 0

GEFSNGP_con_prob3kmehi_228.txt.gz
EHI
0 0 0 0 0 0 0 0 2 4 8 12 17 23 27 30 36 42 45 49 60 68 72 73 73 71 65 59 55 53 52 50 50 49 48 46 42 37 36 37 39 41 40 39
0 0 0 0 0 0 0 0 2 6 10 14 18 24 29 32 35 39 43 50 60 67 70 72 73 70 64 57 53 51 49 48 47 47 47 46 41 36 36 37 37 37 36 35
0 0 0 0 0 0 0 0 2 6 11 16 22 28 33 36 36 37 42 52 61 65 66 69 70 66 59 52 48 46 46 45 45 45 47 45 39 35 36 36 34 33 32 32
0 0 0 0 0 0 0 1 3 6 11 18 24 30 35 38 40 42 47 55 60 60 60 63 63 57 49 43 41 41 42 42 42 44 45 41 36 33 34 34 32 32 33 33
0 0 0 0 0 0 1 3 7 9 13 19 24 28 35 41 45 48 53 57 56 52 53 58 57 51 43 37 36 36 38 38 39 41 40 36 33 32 31 30 30 31 32 32
0 0 0 0 0 0 2 5 10 14 16 20 24 29 37 44 49 52 55 55 52 48 50 56 58 54 45 37 34 34 34 34 35 37 34 31 31 31 30 28 28 28 27 26
1 0 0 0 1 5 9 14 16 18 22 26 29 33 39 45 50 53 52 50 48 47 50 54 57 56 49 41 37 34 33 33 33 33 30 25 25 27 27 26 25 24 22 20
2 3 5 7 9 15 23 25 21 22 26 30 32 32 36 43 46 46 45 42 41 44 46 49 51 50 45 39 34 31 31 30 28 28 25 22 22 23 24 24 21 19 18 17
8 10 16 20 21 24 27 26 22 22 24 25 26 28 33 40 42 40 38 36 37 39 40 41 41 39 34 30 27 26 26 25 24 23 23 23 22 22 22 21 18 17 17 17
16 18 23 25 25 23 22 20 18 18 18 17 20 27 35 40 42 40 36 35 37 38 36 34 32 27 23 22 22 22 21 21 21 21 22 23 22 20 19 18 16 15 16 16
19 20 22 23 21 20 19 18 15 14 13 13 19 29 36 41 42 40 38 38 39 39 37 32 29 24 19 19 19 19 19 18 18 17 18 19 16 13 11 10 10 10 11 12
20 19 19 20 17 16 17 16 14 13 11 12 18 26 32 36 38 37 36 37 37 38 37 33 28 24 20 18 17 17 18 17 14 14 15 15 11 7 4 3 3 3 5 6
20 19 17 16 14 13 14 14 11 10 9 11 17 23 27 29 30 30 30 30 30 31 32 29 25 22 20 18 17 18 18 17 13 12 14 14 11 7 5 3 2 1 1 1
16 17 17 17 16 14 12 9 7 6 8 13 19 22 23 23 23 25 26 23 21 22 23 23 20 19 20 20 19 20 19 17 15 13 13 13 11 9 9 8 6 3 1 0
13 15 17 17 16 13 9 5 4 5 10 16 20 21 21 20 20 21 21 20 18 17 17 19 19 20 21 21 20 20 18 16 15 13 11 11 10 9 9 9 7 6 3 1
9 11 12 11 10 8 5 5 6 8 12 17 18 18 18 18 17 16 15 15 16 17 17 17 18 20 21 20 18 17 15 13 13 12 10 9 8 7 8 7 6 6 4 4
6 7 6 5 4 4 4 7 9 11 14 15 14 15 16 17 15 14 13 13 15 18 18 16 15 16 19 18 16 14 12 10 9 10 10 8 6 6 6 5 4 4 4 4
5 5 4 3 3 4 6 8 10 11 12 11 12 13 14 14 13 12 10 10 13 17 18 15 12 11 14 15 14 13 10 8 8 9 9 7 5 5 5 5 4 3 2 2
4 4 4 4 3 4 6 8 9 9 9 9 10 11 11 11 11 9 7 7 10 14 15 12 8 6 8 10 12 12 11 9 8 8 8 6 4 4 4 4 3 2 1 1
3 3 4 5 3 2 5 7 8 7 6 6 6 7 8 9 8 7 6 5 6 9 9 7 4 3 5 6 8 10 11 10 8 7 6 4 2 2 2 3 2 1 1 2
4 3 3 3 2 1 2 5 7 6 4 3 2 2 5 6 6 7 7 5 4 5 4 3 3 3 3 4 5 7 9 8 7 6 5 3 1 2 3 3 2 2 2 3
4 3 2 1 1 0 1 2 4 4 3 1 0 0 2 3 3 4 5 4 2 2 2 2 2 2 2 2 4 5 5 6 6 5 4 2 2 3 5 3 2 3 3 4
4 2 1 0 0 1 1 1 1 1 1 1 0 0 0 1 1 1 2 2 1 1 2 2 1 0 0 1 1 2 2 2 3 3 2 2 3 4 5 3 2 3 4 3
3 1 0 0 0 1 2 1 1 1 0 0 0 0 0 0 0 0 0 0 0 1 2 2 0 0 0 0 0 0 0 0 1 1 1 1 1 2 2 2 2 3 2 1
1 1 1 1 1 2 3 3 2 2 1 0 0 0 0 0 0 0 0 0 0 1 1 1 0 0 0 0 0 0 0 0 0 0 0 0 0 1 1 1 2 2 1 0
0 0 1 2 2 2 2 2 2 2 1 0 0 0 0 0 0 0 0 0 0 0 0 0 0 0 0 0 0 0 0 0 0 0 0 0 0 1 0 0 1 1 0 0
0 0 1 1 1 1 1 1 1 1 0 0 0 0 0 1 1 1 0 0 0 0 0 0 0 0 0 0 0 0 0 0 0 0 0 0 0 1 0 0 0 0 0 0

GEFSNGP_con_prob3kmehi_234.txt.gz
EHI
0 0 0 0 0 0 0 0 0 0 1 5 15 27 36 40 41 44 48 48 42 39 40 42 40 38 40 42 42 40 41 43 42 38 34 32 27 20 19 21 21 20 19 18
0 0 0 0 0 0 0 0 0 0 1 6 17 30 38 41 41 43 45 45 41 37 38 39 37 35 36 37 38 38 38 40 41 40 38 35 29 24 21 21 20 18 18 19
0 0 0 0 0 0 0 0 0 0 3 11 21 31 38 40 40 39 40 40 37 34 35 36 34 32 31 31 34 35 34 35 37 39 39 37 32 26 23 22 20 18 17 17
0 0 0 0 0 0 0 0 0 1 6 14 24 30 37 40 38 36 35 35 34 33 33 32 31 29 28 29 31 32 32 31 32 33 36 35 30 25 23 22 20 17 15 14
0 0 0 0 0 1 1 1 2 5 11 19 27 33 37 37 35 33 31 31 33 33 32 30 28 28 28 27 27 28 29 29 29 29 31 32 28 23 21 21 19 16 14 12
0 0 0 0 2 3 3 3 4 9 16 22 27 31 31 32 32 30 29 30 32 33 32 29 27 28 28 26 24 24 25 26 27 28 29 28 25 23 22 21 19 17 13 11
0 0 0 1 3 4 3 4 7 11 17 21 24 26 27 30 33 33 32 32 33 34 32 27 26 26 25 23 21 20 21 23 26 27 26 24 23 23 22 21 19 16 13 11
0 0 0 1 3 2 3 6 10 14 17 21 24 27 29 31 34 36 35 33 34 33 29 23 21 21 19 18 17 17 19 21 22 22 21 20 20 22 23 22 20 17 12 10
2 2 2 3 3 3 5 9 13 16 18 22 26 29 30 31 31 33 33 31 30 28 24 21 18 16 15 14 14 15 16 16 16 17 17 17 17 19 21 20 18 15 11 8
6 6 6 7 7 7 8 10 13 15 17 21 24 26 28 29 29 28 28 27 25 23 21 19 16 13 12 12 13 14 14 13 12 13 13 13 12 13 14 14 13 11 8 6
5 6 8 9 10 10 9 10 12 14 16 19 20 22 25 27 26 25 25 23 22 20 17 14 11 10 10 11 11 13 14 13 12 11 9 8 6 6 6 6 6 5 4 3
2 3 5 8 9 11 11 11 11 13 17 18 18 20 21 22 23 22 21 20 19 16 13 10 7 7 8 9 9 11 13 14 13 11 8 5 3 1 1 1 1 1 1 1
2 2 3 6 8 10 11 10 8 10 13 15 17 18 18 18 19 18 18 17 16 13 11 9 7 7 7 6 6 7 9 11 12 12 10 7 3 1 1 0 0 0 0 0
3 3 4 5 6 7 7 6 5 5 8 11 14 17 17 17 17 16 15 13 12 11 10 10 8 7 6 5 4 5 6 7 9 10 11 9 5 3 1 0 0 0 0 0
5 5 4 3 2 3 4 3 2 4 7 10 14 16 16 16 16 15 13 11 10 10 10 9 8 7 6 4 4 4 4 6 7 9 9 8 5 3 2 1 0 0 0 0
6 6 4 2 0 1 2 1 2 4 7 11 14 15 14 14 14 12 11 10 10 9 8 7 6 5 5 4 4 4 5 6 7 7 7 6 5 3 3 2 1 1 0 0
5 4 3 1 0 0 1 2 4 5 7 10 12 13 13 12 10 8 8 8 9 7 5 4 3 3 4 5 6 5 5 7 7 7 6 6 4 3 3 3 3 2 1 0
1 1 1 0 0 1 2 3 6 8 8 8 10 11 10 9 7 5 5 5 6 5 3 1 1 1 3 4 5 5 5 6 7 7 6 6 5 4 3 3 3 2 1 0
0 0 0 0 0 1 2 4 6 8 8 7 8 8 7 6 4 3 3 3 3 2 1 0 0 0 1 2 2 2 3 5 6 6 6 6 6 4 3 3 3 2 1 0
0 0 0 0 0 1 2 3 4 5 5 5 5 5 4 4 3 3 3 2 1 0 0 0 0 0 0 0 0 0 1 3 4 4 4 4 5 5 4 3 3 2 1 0
0 0 0 0 0 0 1 1 2 2 2 3 3 3 3 3 3 3 1 1 0 0 0 0 0 0 0 0 0 0 0 1 2 2 2 3 3 3 3 3 3 2 1 0
0 0 0 0 0 0 0 0 0 0 1 2 3 3 3 3 3 3 1 0 0 0 0 0 0 0 0 0 0 0 0 0 0 0 1 1 1 1 2 3 3 2 1 0
0 0 0 0 0 0 0 0 0 0 1 2 3 3 3 3 3 3 2 0 0 0 0 0 0 0 0 0 0 0 0 0 0 0 0 0 0 0 1 2 2 2 1 0
0 0 0 0 0 0 0 0 0 0 0 1 2 2 2 2 2 2 1 0 0 0 0 0 0 0 0 0 0 0 0 0 0 0 0 0 0 0 0 1 1 1 0 0
0 0 0 0 0 0 0 0 0 0 0 0 1 1 1 1 1 1 0 0 0 0 0 0 0 0 0 0 0 0 0 0 0 0 0 0 0 0 0 0 0 0 0 0
0 0 0 0 0 0 0 0 0 0 0 0 0 0 0 0 0 0 0 0 0 0 0 0 0 0 0 0 0 0 0 0 0 0 0 0 0 0 0 0 0 0 0 0
0 0 0 0 0 0 0 0 0 0 0 0 0 0 0 0 0 0 0 0 0 0 0 0 0 0 0 0 0 0 0 0 0 0 0 0 0 0 0 0 0 0 0 0

GEFSNGP_con_prob3kmehi_240.txt.gz
EHI
0 0 0 0 0 0 0 0 0 0 0 1 3 5 7 10 14 16 15 13 13 14 13 11 12 12 12 12 16 21 21 19 16 14 14 12 10 10 11 8 6 7 6 5
0 0 0 0 0 0 0 0 0 0 0 2 5 6 8 12 18 20 18 14 12 12 13 14 16 17 16 14 17 20 21 19 18 18 18 15 12 12 12 10 8 9 9 8
0 0 0 0 0 0 0 0 0 0 0 2 6 8 10 15 21 22 20 16 12 11 13 16 18 20 18 16 17 18 19 19 20 21 20 17 14 14 14 13 12 13 13 12
0 0 0 0 0 0 0 0 0 0 0 2 6 11 14 17 20 20 19 16 12 11 14 16 17 18 16 15 15 15 16 18 20 21 20 17 17 17 17 17 17 17 16 13
0 0 0 0 0 0 0 0 0 0 1 4 9 13 14 16 17 16 15 13 11 12 14 15 15 14 13 13 13 13 14 18 20 20 19 18 20 20 19 19 19 18 15 11
0 0 0 0 0 0 0 0 0 0 2 7 11 10 9 12 14 13 11 10 10 12 14 14 12 10 9 9 9 11 14 17 20 21 20 21 22 21 19 18 16 14 11 9
0 0 0 0 0 0 0 0 0 0 4 8 9 6 6 10 12 11 10 10 11 13 13 11 9 6 5 5 6 9 13 16 19 21 21 22 21 19 18 15 12 10 9 8
0 0 0 0 0 0 0 0 0 0 3 7 7 7 10 12 12 10 10 13 14 14 12 9 6 4 4 4 5 8 12 14 17 19 19 19 19 18 16 13 10 10 10 9
0 0 0 0 0 0 0 0 0 1 3 7 10 13 15 15 13 10 10 14 17 17 14 10 6 6 6 4 5 8 10 12 14 15 16 16 16 16 14 12 11 11 12 11
0 0 0 0 0 0 0 1 2 4 6 10 14 17 17 15 12 9 9 14 18 19 17 12 8 6 6 4 5 8 9 10 10 11 11 11 11 12 11 9 10 11 11 11
0 0 0 0 0 0 1 2 5 8 10 12 16 17 16 14 11 9 10 14 17 18 17 13 9 6 5 5 7 9 10 9 8 6 6 7 6 6 5 5 5 6 7 7
0 0 0 0 0 0 1 3 7 10 12 14 16 16 14 12 11 11 13 14 15 15 14 12 9 6 5 6 8 10 10 8 6 4 4 4 4 2 1 1 1 2 2 2
0 0 0 0 0 0 2 4 6 9 11 14 14 13 12 11 12 13 13 13 11 10 9 9 8 6 4 6 8 10 9 7 4 3 3 4 4 3 2 1 1 1 0 0
0 0 0 1 0 1 2 4 5 7 9 11 12 11 10 10 10 10 11 10 8 7 5 4 4 4 3 4 6 7 6 4 3 2 2 3 4 4 3 3 2 2 1 0
0 0 0 0 0 0 1 2 5 5 5 7 9 9 8 8 7 7 7 7 6 5 3 2 2 3 3 3 4 5 4 2 1 1 1 2 3 3 3 3 3 3 1 1
0 0 0 0 0 0 0 1 3 3 3 3 5 7 7 7 7 6 5 5 5 4 3 2 1 2 3 4 4 5 4 3 1 1 1 2 3 3 3 3 3 3 3 2
0 0 0 0 0 0 0 0 1 1 1 1 3 6 8 8 8 6 5 4 4 3 3 2 1 1 2 3 4 4 4 3 3 3 4 4 3 3 3 3 3 3 3 3
0 0 0 0 0 0 0 0 0 0 0 1 4 6 7 7 7 6 5 4 4 3 3 2 1 0 1 1 2 2 2 3 3 3 4 4 3 3 3 3 3 3 3 3
0 0 0 0 0 0 0 0 0 0 0 2 4 5 5 5 4 3 3 4 4 3 3 2 1 0 0 0 1 1 1 1 2 2 2 2 2 2 2 2 2 3 3 3
0 0 0 0 0 0 0 0 0 0 0 2 3 4 3 3 2 1 2 3 3 3 2 1 0 0 0 0 0 0 0 0 1 1 1 1 1 1 1 1 1 1 2 2
0 0 0 0 0 0 0 0 1 0 0 1 2 2 1 1 1 1 2 3 3 2 1 0 0 0 0 0 0 0 0 0 0 0 0 0 0 0 0 0 0 0 1 1
0 0 0 0 0 0 0 0 0 0 0 1 1 1 0 0 1 1 3 3 2 1 0 0 0 0 0 0 0 0 0 0 0 0 0 0 0 0 0 0 0 0 0 0
0 0 0 0 0 0 0 0 0 0 0 0 0 0 0 1 2 3 3 2 1 0 0 0 0 0 0 0 0 0 0 0 0 0 0 0 0 0 0 0 0 0 0 0
0 0 0 0 0 0 0 0 0 0 0 0 0 0 1 2 3 3 3 1 0 0 0 0 0 0 0 0 0 0 0 0 0 0 0 0 0 0 0 0 0 0 0 0
0 0 0 0 0 0 0 0 0 0 0 0 0 0 1 2 3 3 2 1 0 0 0 0 0 0 0 0 0 0 0 0 0 0 0 0 0 0 0 0 0 0 0 0
0 0 0 0 0 0 0 0 0 0 0 0 0 0 0 1 2 1 1 0 0 0 0 0 0 0 0 0 0 0 0 0 0 0 0 0 0 0 0 0 0 0 0 0
0 0 0 0 0 0 0 0 0 0 0 0 0 0 0 0 1 0 0 0 0 0 0 0 0 0 0 0 0 0 0 0 0 0 0 0 0 0 0 0 0 0 0 0

GEFSNGP_con_prob3kmehi_246.txt.gz
EHI
0 0 0 0 0 0 0 0 0 0 0 2 5 11 17 21 23 23 26 30 33 39 49 53 49 42 35 29 28 30 30 26 24 24 23 22 23 23 19 16 14 16 18 17
0 0 0 0 0 0 0 0 0 0 1 3 7 12 17 21 24 26 27 31 34 40 49 53 49 44 38 34 33 33 31 26 24 24 22 21 22 22 22 20 19 19 19 19
0 0 0 0 0 0 0 0 0 0 1 4 8 13 18 23 28 29 29 31 34 38 44 47 46 43 39 36 37 37 32 26 24 22 20 19 19 21 23 24 25 24 24 24
0 0 0 0 0 0 0 0 0 1 2 4 7 11 17 24 30 31 29 30 31 32 36 39 41 42 37 34 37 38 32 26 24 22 20 19 20 23 24 26 28 30 30 30
0 0 0 0 0 0 0 0 0 1 3 4 5 8 14 23 29 30 29 28 27 25 28 33 37 40 36 33 36 38 33 28 25 24 23 23 24 25 25 26 29 30 30 30
0 0 0 0 0 0 0 0 1 3 5 6 6 9 16 24 30 32 32 31 29 27 30 34 38 40 38 35 36 36 32 28 25 24 24 26 27 27 25 26 27 27 26 26
0 0 0 0 0 0 0 2 3 5 7 8 9 13 21 27 32 35 37 37 35 34 36 39 41 41 40 37 36 35 32 28 25 24 25 26 28 28 27 27 28 27 25 24
0 0 0 1 2 2 3 5 5 6 7 8 10 15 22 28 33 36 38 39 38 37 37 38 39 39 37 34 34 35 34 30 27 26 26 26 28 29 29 28 28 26 23 22
0 0 2 4 5 6 8 8 6 6 6 7 10 14 21 28 32 34 36 37 38 36 33 33 33 34 33 31 32 34 34 30 27 27 27 27 28 28 28 27 25 22 20 20
1 2 4 8 10 11 12 11 9 7 7 7 9 13 21 28 33 36 37 37 37 35 31 30 31 32 31 31 32 31 30 27 24 25 27 28 27 26 25 24 22 20 19 19
4 4 7 10 12 16 18 17 16 12 9 8 9 14 22 30 36 40 40 38 37 36 33 30 31 32 31 30 29 27 25 23 20 20 23 24 23 21 18 17 16 16 16 15
5 7 9 12 14 18 22 23 21 17 12 11 12 16 22 29 35 38 37 36 35 34 33 32 31 30 28 26 24 23 22 19 15 15 18 19 17 13 9 7 6 7 8 8
7 9 12 14 16 18 20 22 23 22 19 17 16 17 20 26 31 32 31 31 30 29 29 30 29 27 24 21 19 20 20 18 14 13 15 15 12 8 4 2 2 2 2 2
9 10 13 15 16 17 18 20 23 25 24 22 20 19 21 23 26 26 26 26 25 22 22 25 26 25 21 17 15 15 17 17 15 14 13 12 10 7 5 4 4 4 2 1
9 10 11 12 14 16 16 19 22 23 22 21 19 19 20 22 23 24 23 22 21 19 19 21 22 20 17 12 9 9 12 14 14 12 11 9 9 8 6 6 6 5 5 4
8 9 9 10 12 14 14 15 17 17 16 16 15 15 16 18 20 22 22 21 20 18 17 19 19 17 13 7 5 6 7 8 8 8 7 7 7 6 6 5 5 5 6 6
7 7 9 9 9 11 11 10 9 10 11 12 11 10 11 12 14 16 17 18 17 14 13 14 16 16 12 7 4 5 6 5 4 2 3 4 4 3 3 4 5 6 6 6
6 6 6 6 6 6 7 7 6 6 8 9 9 8 7 8 9 10 11 12 11 9 8 9 12 13 12 8 5 4 4 3 1 0 0 1 1 1 1 3 4 5 5 5
5 5 4 4 4 5 6 7 6 5 5 6 6 6 5 5 5 6 8 8 7 7 7 7 7 7 8 6 3 2 2 1 0 0 0 0 0 0 0 1 1 2 3 4
6 6 6 5 5 5 6 7 6 4 3 4 4 3 3 2 2 3 6 6 7 7 7 5 4 5 5 3 2 1 1 0 0 0 0 0 0 0 0 0 0 0 1 2
6 6 6 5 4 4 5 5 4 2 1 1 1 1 1 0 0 1 3 4 5 6 6 5 4 4 4 2 1 2 2 0 0 0 0 0 0 0 0 0 0 0 1 1
5 6 5 4 3 3 4 3 2 1 1 0 0 0 0 0 0 0 1 2 3 3 5 5 3 2 2 2 1 1 1 0 0 0 0 0 0 0 0 0 0 0 0 0
6 6 5 4 3 4 4 3 1 0 0 0 0 0 0 0 0 1 1 2 2 1 2 3 1 0 1 2 2 2 1 1 1 0 0 0 0 0 0 0 0 0 0 0
6 6 5 4 3 3 3 1 0 0 0 0 0 0 0 1 1 1 1 1 1 0 0 0 0 0 1 2 3 3 2 2 1 0 0 0 0 0 0 0 0 0 0 0
6 5 4 3 3 3 2 1 0 0 0 0 0 0 0 1 1 0 0 0 0 0 0 0 0 0 1 2 2 2 1 1 1 0 0 0 0 0 0 0 0 0 0 0
5 4 3 3 3 2 1 0 0 0 0 0 0 0 0 0 0 0 0 0 0 0 1 1 0 0 0 1 1 1 0 0 0 0 0 0 0 0 0 0 0 0 0 0
4 4 3 3 2 1 0 0 0 0 0 0 0 0 0 0 0 0 0 0 0 1 2 2 1 0 0 0 0 0 0 0 0 0 0 0 0 0 0 0 0 0 0 0